#timestamp,LO_Frequency,Hit,StdDev 
1681578015.7,286047000.1,P
1681578035.6,286047002.7,P
1681578055.4,286047000.0,N
1681578075.2,286047000.4,N
1681578095.1,286047000.2,N
1681578096.0,286047000.2,N
1681578115.8,286047002.3,N
1681578135.7,286047002.7,N
1681578155.5,286047000.0,N
1681578175.3,286046998.6,N
1681578195.2,286046998.3,N
1681578215.0,286046998.3,N
1681578215.9,286046998.3,N
1681578235.7,286047000.7,N
1681578255.6,286046998.8,N
1681578275.4,286046997.0,N
1681578295.3,286046997.1,N
1681578315.1,286046997.6,N
1681578316.0,286046997.6,N
1681578335.8,286046997.6,N
1681578355.7,286046998.0,N
1681578375.5,286046997.5,N
1681578395.3,286046997.2,N
1681578415.2,286046996.8,N
1681578435.0,286046996.9,N
1681578435.9,286046996.9,N
1681578455.8,286046995.0,N
1681578475.6,286046994.9,N
1681578495.4,286046995.7,N
1681578515.3,286046995.3,N
1681578535.1,286046995.8,N
1681578555.8,286046995.7,N
1681578575.7,286046995.7,N
1681578595.5,286046995.8,N
1681578615.4,286046996.2,N
1681578635.2,286046993.5,Y
1681578655.0,286046995.7,P
1681578655.9,286046995.7,P
1681578675.8,286046997.5,N
1681578695.6,286046997.7,N
1681578715.4,286046997.7,N
1681578735.3,286046997.1,Y
1681578755.1,286047000.2,P
1681578775.9,286046999.7,N
1681578795.7,286047002.4,N
1681578815.5,286047000.2,N
1681578835.4,286047000.1,N
1681578855.2,286046999.7,N
1681578875.1,286047000.4,N
1681578876.0,286047000.4,N
1681578895.8,286047002.8,N
1681578915.6,286047001.5,N
1681578935.5,286046999.7,N
1681578955.3,286047002.6,N
1681578975.1,286047000.4,N
1681578995.9,286047000.9,N
1681579015.7,286046998.7,N
1681579035.6,286046998.2,N
1681579055.4,286047000.8,N
1681579075.2,286047000.8,N
1681579095.1,286047001.1,N
1681579096.0,286047001.1,N
1681579115.8,286046999.9,N
1681579135.7,286047000.1,N
1681579155.5,286047000.2,N
1681579175.3,286046999.0,N
1681579195.2,286046998.1,N
1681579215.0,286046999.3,N
1681579215.9,286046999.3,N
1681579235.7,286046998.8,N
1681579255.6,286046998.6,N
1681579275.4,286046998.1,N
1681579295.3,286046998.1,N
1681579315.1,286046998.2,N
1681579316.0,286046998.2,N
1681579335.8,286047000.7,N
1681579355.7,286047001.2,N
1681579375.5,286046998.8,N
1681579395.4,286046998.8,N
1681579415.2,286046999.4,N
1681579435.0,286046998.3,N
1681579435.9,286046998.3,N
1681579455.8,286046996.8,N
1681579475.6,286046997.3,N
1681579495.5,286046996.5,N
1681579515.3,286046999.5,N
1681579535.1,286046999.0,N
1681579555.9,286046999.6,N
1681579575.7,286046997.0,N
1681579595.6,286046996.7,N
1681579615.4,286046997.8,N
1681579635.2,286046998.0,N
1681579655.1,286046996.8,N
1681579656.0,286046996.8,N
1681579675.8,286046997.9,N
1681579695.6,286046997.4,N
1681579715.5,286046997.9,N
1681579735.3,286046997.5,N
1681579755.2,286046995.0,Y
1681579775.9,286046996.5,P
1681579795.7,286046997.1,P
1681579815.6,286046998.0,N
1681579835.4,286046997.6,Y
1681579855.3,286047001.0,P
1681579875.1,286047000.7,N
1681579876.0,286047000.7,N
1681579895.8,286047000.0,N
1681579915.7,286047001.1,N
1681579935.5,286046998.3,N
1681579955.3,286046998.9,N
1681579975.2,286046998.1,N
1681579995.0,286046998.5,N
1681579995.9,286046998.5,N
1681580015.8,286047001.1,N
1681580035.6,286047001.1,N
1681580055.4,286047000.6,N
1681580075.3,286046998.3,N
1681580095.1,286046999.1,N
1681580115.8,286046998.4,N
1681580135.7,286046999.3,N
1681580155.5,286046998.5,N
1681580175.4,286047000.8,N
1681580195.2,286046998.1,N
1681580215.0,286046998.3,N
1681580215.9,286046998.3,N
1681580235.8,286046998.8,N
1681580255.6,286046998.9,N
1681580275.4,286046999.4,N
1681580295.3,286046999.0,N
1681580315.1,286046999.4,N
1681580335.9,286046998.6,N
1681580355.7,286046998.8,N
1681580375.5,286046998.5,N
1681580395.4,286046999.2,N
1681580415.2,286046997.0,Y
1681580435.1,286046997.5,P
1681580436.0,286046997.5,N
1681580455.8,286046997.8,N
1681580475.6,286046997.3,Y
1681580495.5,286047000.8,P
1681580515.3,286047000.3,N
1681580535.2,286047000.0,N
1681580555.9,286047000.4,N
1681580575.7,286047000.2,N
1681580595.6,286047001.2,N
1681580615.4,286046998.5,N
1681580635.2,286047000.2,N
1681580655.1,286047000.7,N
1681580656.0,286047000.7,N
1681580675.8,286046998.5,N
1681580695.7,286047000.2,N
1681580715.5,286046998.6,N
1681580735.3,286046998.2,N
1681580755.2,286046998.1,N
1681580775.0,286046999.2,N
1681580775.9,286046999.2,N
1681580795.8,286047000.7,N
1681580815.6,286046998.2,N
1681580835.4,286047000.5,N
1681580855.3,286047000.1,N
1681580875.1,286047000.2,N
1681580895.8,286046998.2,N
1681580915.7,286046998.1,N
1681580935.5,286046999.6,N
1681580955.4,286046999.3,N
1681580975.2,286046998.9,N
1681580995.0,286046999.2,N
1681580995.9,286046999.2,N
1681581015.8,286046996.9,Y
1681581035.6,286046999.6,P
1681581055.5,286046998.8,P
1681581075.3,286047000.7,N
1681581095.1,286047001.2,N
1681581115.9,286046998.2,N
1681581135.7,286046998.9,N
1681581155.5,286046999.5,N
1681581175.4,286046998.4,N
1681581195.2,286046999.0,N
1681581215.0,286046998.9,N
1681581216.0,286046998.9,N
1681581235.8,286046998.9,N
1681581255.6,286046998.9,N
1681581275.5,286046998.3,N
1681581295.3,286047001.0,N
1681581315.1,286047001.1,N
1681581335.9,286047001.2,N
1681581355.7,286047000.8,N
1681581375.6,286047001.0,N
1681581395.4,286046999.8,N
1681581415.2,286047000.1,N
1681581435.1,286047000.1,N
1681581436.0,286047000.1,N
1681581455.8,286047000.5,N
1681581475.6,286047001.0,N
1681581495.5,286047001.2,N
1681581515.3,286047002.7,N
1681581535.2,286047002.4,N
1681581555.9,286046999.7,N
1681581575.7,286047000.1,N
1681581595.6,286047000.7,N
